Location: American Medical Response
(33.3472°N, 96.5511°W)
Time: 15:41:44
(UTC+00:00)

SJ 16-02 - Pass Details

Date: 09 July 2022
Orbit: 604 x 615 km, 75.0° (Epoch: 14 August)

Event Time Altitude Azimuth Distance (km) Brightness Sun altitude
Rises 06:19:18 0° 331° (NNW) 2,887 5.6 -34.2°
Reaches altitude 10° 06:21:47 10° 319° (NW) 1,977 4.5 -34.3°
Enters shadow 06:22:35 14° 313° (NW) 1,717 4.0 -34.3°
